Skip Page Navigation
NASA JPL Caltech
NASA Logo - Jet Propulsion Laboratory + View the NASA Portal
+ Center for Near-Earth Object Studies
JPL Home Earth Solar System Stars & Galaxies Technology
JPL Solar System Dynamics
BODIES ORBITS EPHEMERIDES TOOLS PHYSICAL DATA DISCOVERY FAQ SITE MAP
IMPORTANT: The SSD Announcement email list is now available. Major changes are coming in the near future, including possible hostname and/or URL changes. To be notified of such changes, subscribe to this email list.

Please visit this page for more details.


JPL Small-Body Database Browser
Search: [ help ]  
357158 (2002 CR98)
Classification: Main-belt Asteroid          SPK-ID: 2357158
Ephemeris | Orbit Diagram | Orbital Elements | Mission Design | Physical Parameters | Discovery Circumstances | Close-Approach Data ]

[ show orbit diagram ]
Orbital Elements at Epoch 2458600.5 (2019-Apr-27.0) TDB
Reference: JPL 10 (heliocentric ecliptic J2000)
 Element Value Uncertainty (1-sigma)   Units 
e .1733574853371083 5.5881e-08  
a 3.054311268455915 3.2168e-08 au
q 2.524823547519604 1.7636e-07 au
i 8.425349451997088 8.5458e-06 deg
node 345.7593168221978 4.1212e-05 deg
peri 101.6013235766256 4.75e-05 deg
M 135.4480399105578 2.4965e-05 deg
tp 2457866.935016181136
(2017-Apr-23.43501618)
0.00013087 TDB
period 1949.702589636416
5.34
3.0802e-05
8.433e-08
d
yr
n .1846435461047079 2.917e-09 deg/d
Q 3.583798989392226 3.7745e-08 au
  Orbit Determination Parameters
   # obs. used (total)      193  
   data-arc span      6344 days (17.37 yr)  
   first obs. used      2002-02-07  
   last obs. used      2019-06-22  
   planetary ephem.      DE431  
   SB-pert. ephem.      SB431-N16  
   condition code      0  
   norm. resid. RMS      .56392  
   source      ORB  
   producer      Otto Matic  
   solution date      2019-Sep-24 06:42:31  

Additional Information
 Earth MOID = 1.55783 au 
 Jupiter MOID = 1.70052 au 
 T_jup = 3.196 
[ show covariance matrix ]

Ephemeris | Orbit Diagram | Orbital Elements | Mission Design | Physical Parameters | Discovery Circumstances | Close-Approach Data ]

Physical Parameter Table
Parameter Symbol Value Units Sigma Reference Notes
absolute magnitude H 15.8   n/a MPO437508  

357158 (2002 CR98)          Discovered 2002-Feb-07 by LINEAR at Socorro
Reference: 20130327/Numbers.arcLast Updated: 2013-03-29

[ show close-approach data ]
Ephemeris | Orbit Diagram | Orbital Elements | Mission Design | Physical Parameters | Discovery Circumstances | Close-Approach Data ]
ABOUT SSD CREDITS/AWARDS PRIVACY/COPYRIGHT GLOSSARY LINKS
FirstGov 2019-Dec-11 14:54 UT
(server date/time)  
NASA Home Page
Site Manager:   Ryan S. Park
Webmaster  Alan B. Chamberlin